Location: Brno
(49.2000°N, 16.6330°E)
Time: 13:51:32
(UTC+01:00)

Meteor 1-4 Rocket - Visible Passes

Search period start: 16 January 2017 00:00
Search period end: 26 January 2017 00:00
Orbit: 455 x 510 km, 81.2° (Epoch: 16 January)

Date Brightness Start Highest point End Pass type
(mag) Time Alt. Az. Time Alt. Az. Time Alt. Az.
16 Jan 5.2 04:44:50 10° SE 04:47:39 21° E 04:50:32 10° NE visible
16 Jan 3.3 06:19:15 10° SW 06:22:38 33° WNW 06:26:06 10° N visible
16 Jan 6.2 17:42:55 10° WNW 17:43:46 11° W 17:44:36 10° W visible
17 Jan 5.8 04:20:28 10° ESE 04:22:30 14° E 04:24:33 10° NE visible
17 Jan 2.7 05:53:36 10° SSW 05:57:14 50° WNW 06:00:57 10° N visible
17 Jan 5.7 17:16:17 10° NW 17:18:39 16° W 17:20:58 10° SW visible
18 Jan 2.4 05:30:02 29° SSW 05:31:52 79° WNW 05:35:41 10° N visible
19 Jan 3.6 05:07:42 41° NNE 05:07:42 41° NNE 05:10:20 10° NNE visible
19 Jan 4.5 06:42:08 13° WNW 06:42:12 13° WNW 06:43:56 10° NW visible
20 Jan 5.1 04:43:52 17° NNE 04:43:52 17° NNE 04:44:52 10° NNE visible
20 Jan 4.5 06:18:15 14° NW 06:18:15 14° NW 06:19:21 10° NNW visible
21 Jan 4.9 05:53:57 13° NNW 05:53:57 13° NNW 05:54:26 10° N visible
